Location: Goettingen
(51.5300°N, 9.9433°E)
Time: 10:26:19
(UTC+02:00)

ISS - Pass Details

Date: 18 May 2019
Orbit: 407 x 410 km, 51.6° (Epoch: 21 May)

Event Time Altitude Azimuth Distance (km) Brightness Sun altitude
Rises 04:31:51 0° 282° (WNW) 2,340 -0.3 -7.2°
Reaches altitude 10° 04:34:15 10° 267° (W) 1,476 -1.4 -6.9°
Maximum altitude 04:36:50 21° 215° (SW) 968 -2.5 -6.6°
Drops below altitude 10° 04:39:26 10° 163° (SSE) 1,470 -1.2 -6.4°
Sets 04:41:48 0° 147° (SSE) 2,327 -0.1 -6.1°
